This is the latest recevied weather packets stored in our database for station/object SQ4IXR-4. If no packets are shown the sender has not sent any weather packets the latest 10 day(s).
| Time | Temp. | Humidity | Pressure | Rain* | Wind** | Luminosity | Snow |
|---|---|---|---|---|---|---|---|
| 1777668026 | 11.67° C | 61% | 1028.4 hPa | - | - | - | - |
| 1777667203 | 11.67° C | 62% | 1028.4 hPa | - | - | - | - |
| 1777666381 | 12.22° C | 61% | 1028.3 hPa | - | - | - | - |
| 1777665557 | 12.22° C | 60% | 1028.3 hPa | - | - | - | - |
| 1777664735 | 12.78° C | 59% | 1028.4 hPa | - | - | - | - |
| 1777663914 | 12.78° C | 58% | 1028.4 hPa | - | - | - | - |
| 1777663089 | 12.78° C | 57% | 1028.3 hPa | - | - | - | - |
| 1777662262 | 12.78° C | 57% | 1028.1 hPa | - | - | - | - |
| 1777661439 | 12.78° C | 61% | 1028.1 hPa | - | - | - | - |
| 1777660617 | 12.78° C | 58% | 1028 hPa | - | - | - | - |
| 1777659795 | 13.33° C | 53% | 1027.9 hPa | - | - | - | - |
| 1777658975 | 14.44° C | 50% | 1027.9 hPa | - | - | - | - |
| 1777658152 | 15° C | 48% | 1027.6 hPa | - | - | - | - |
| 1777657328 | 15° C | 46% | 1027.6 hPa | - | - | - | - |
| 1777656505 | 16.11° C | 45% | 1027.5 hPa | - | - | - | - |
| 1777655681 | 16.67° C | 43% | 1027.4 hPa | - | - | - | - |
| 1777654857 | 17.22° C | 42% | 1027.4 hPa | - | - | - | - |
| 1777654034 | 17.22° C | 41% | 1027.3 hPa | - | - | - | - |
| 1777653210 | 18.33° C | 39% | 1027.4 hPa | - | - | - | - |
| 1777652387 | 18.89° C | 37% | 1027.3 hPa | - | - | - | - |
| 1777651566 | 18.89° C | 36% | 1027.3 hPa | - | - | - | - |
| 1777650741 | 19.44° C | 36% | 1027.3 hPa | - | - | - | - |
| 1777649918 | 19.44° C | 35% | 1027.3 hPa | - | - | - | - |
| 1777649095 | 19.44° C | 35% | 1027.2 hPa | - | - | - | - |
| 1777648271 | 18.89° C | 35% | 1027.3 hPa | - | - | - | - |
* Rain since midnight (hover to see other rain measurements)
** Current wind speed in m/s (hover to see current wind gust speed)